Weather History for CWZL - March, 2014

Change the Weather History Date:

Sunday, March 23, 2014

  Actual Average Record
Temperature  
Mean Temperature 40 °F -  
Max Temperature 43 °F - - ()
Min Temperature 38 °F - - ()
Degree Days  
Heating Degree Days 24    
Moisture  
Dew Point 39 °F    
Average Humidity 88    
Maximum Humidity 96    
Minimum Humidity 83    
Precipitation  
Precipitation 0.00 in - - ()
Sea Level Pressure  
Sea Level Pressure 30.26 in    
Wind  
Wind Speed 12 mph ()    
Max Wind Speed 23 mph    
Max Gust Speed -    
T = Trace of Precipitation, MM = Missing Value Source: Averaged Metar Reports

Daily Weather History Graph

Daily Weather History Graph

Search for Another Location

Airport or City:

Trip Planner

Search our weather history database for the weather conditions in past years. The results will help you decide how hot, cold, wet, or windy it might be!

Date:

Astronomy

Mar. 23, 2014 Rise Set
Actual Time 7:41 AM PDT 8:05 PM PDT
Civil Twilight 7:06 AM PDT 8:40 PM PDT
Nautical Twilight 6:25 AM PDT 9:21 PM PDT
Astronomical Twilight 5:42 AM PDT 10:05 PM PDT
Moon 3:08 AM PDT (3/23) 11:50 AM PDT (3/23)
Length of Visible Light 13h 33m
Length of Day
12h 24m
Waning Gibbous, 53% of the Moon is Illuminated
Mar 23
Waning Gibbous
Mar 23
Last Quarter
Mar 30
New
Apr 7
First Quarter
Apr 15
Full

Hourly Weather History & Observations

Time (PDT) Temp. Windchill Dew Point Humidity Pressure Visibility Wind Dir Wind Speed Gust Speed Precip Events Conditions
12:00 AM 42.3 °F 35.1 °F 39.6 °F 90% 30.29 in - SE 13.8 mph - N/A   Unknown
1:00 AM 42.1 °F 35.2 °F 38.8 °F 88% 30.30 in - SE 12.7 mph - N/A   Unknown
2:00 AM 41.9 °F 35.4 °F 38.3 °F 87% 30.30 in - SE 11.5 mph - N/A   Unknown
3:00 AM 40.8 °F 34.5 °F 38.8 °F 93% 30.31 in - SSE 10.4 mph - N/A   Unknown
4:00 AM 40.5 °F 36.5 °F 38.8 °F 94% 30.30 in - SE 5.8 mph - N/A   Unknown
5:00 AM 41 °F - 38 °F 83% 30.31 in - South 6.9 mph - -  
5:00 AM 40.8 °F 36.2 °F 37.6 °F 88% 30.31 in - South 6.9 mph - N/A   Unknown
6:00 AM 41.0 °F 34.3 °F 37.6 °F 88% 30.31 in - South 11.5 mph - N/A   Unknown
7:00 AM 41.2 °F 36.6 °F 37.8 °F 88% 30.30 in - South 6.9 mph - N/A   Unknown
8:00 AM 40.1 °F 35.3 °F 37.6 °F 91% 30.30 in - SSW 6.9 mph - N/A   Unknown
9:00 AM 38.3 °F 35.9 °F 37.2 °F 96% 30.30 in - SW 3.5 mph - N/A   Unknown
10:00 AM 42.4 °F 35.7 °F 39.7 °F 90% 30.29 in - SE 12.7 mph - N/A   Unknown
11:00 AM 42 °F - 39 °F 86% 30.29 in - SE 13.8 mph - -  
11:00 AM 42.3 °F 35.1 °F 39.2 °F 89% 30.29 in - SE 13.8 mph - N/A   Unknown
12:00 PM 42.4 °F 34.4 °F 39.2 °F 88% 30.28 in - SE 17.3 mph - N/A   Unknown
1:00 PM 43.2 °F 35.6 °F 38.7 °F 84% 30.28 in - SSE 16.1 mph - N/A   Unknown
2:00 PM 42.3 °F 33.3 °F 37.9 °F 85% 30.27 in - SSE 20.7 mph - N/A   Unknown
3:00 PM 42.4 °F 35.3 °F 38.7 °F 86% 30.26 in - SE 13.8 mph - N/A   Unknown
4:00 PM 41.9 °F 33.4 °F 37.0 °F 83% 30.24 in - SSE 18.4 mph - N/A   Unknown
5:00 PM 42 °F - 39 °F 85% 30.22 in - SE 17.3 mph - -  
5:00 PM 41.5 °F 33.2 °F 39.0 °F 91% 30.22 in - SE 17.3 mph - N/A   Unknown
6:00 PM 43.2 °F 34.2 °F 39.0 °F 85% 30.20 in - SE 21.9 mph - N/A   Unknown
7:00 PM 43.3 °F 34.2 °F 38.8 °F 84% 30.19 in - SE 23.0 mph - N/A   Unknown
8:00 PM 43.2 °F 34.2 °F 38.3 °F 83% 30.19 in - SE 21.9 mph - N/A   Unknown
9:00 PM 41.7 °F 32.1 °F 38.1 °F 87% 30.17 in - SE 23.0 mph - N/A   Unknown
10:00 PM 41.2 °F 31.6 °F 37.6 °F 87% 30.16 in - SE 21.9 mph - N/A   Unknown
11:00 PM 42 °F - 40 °F 88% 30.15 in - SE 20.7 mph - -  
11:00 PM 42.1 °F 33.1 °F 39.7 °F 91% 30.15 in - SE 20.7 mph - N/A   Unknown